Voltar ao catálogo

CZ-6A DEB

AtivoSSO
NORAD 54303·DEBRIS·🇨🇳 China

Lançado Nov 11, 2022 de Taiyuan Satellite Launch Center

Loading…

Próximas Passagens (próximas 24 horas)

TLE

AtualizadoSource: Space-Track

Época: Sep 14, 2026, 17:45 UTC

1 54303U 22151AW  26257.73983033 -.00000048  00000-0 -28715-5 0  9996
2 54303  98.8609 257.6582 0047875  97.1369 263.5248 14.09122157196961

Acompanhe CZ-6A DEB em tempo real com AllMySat

Download on the App Store